Hourly Data Report for September 22, 2021

TORONTO CITY
ONTARIO
Current Station Operator: ECCC - MSC

43°40'00.000" N
79°24'00.000" W
112.50 m
6158355
71508
XTO

Download Data

Hourly Data (September 2021)
Hourly Data Report for September 22, 2021
TIME
LST
Temp Definition
°C
Dew Point Definition
°C
Rel Hum Definition
%
Precip. Amount Definition
mm

Wind Dir Definition
10's deg

Wind Spd Definition
km/h
Visibility Definition
km
Stn Press Definition
kPa
Hmdx Definition


Wind Chill Definition


Weather Definition


00:00 19.5 18.6 94 1.7       100.30     LegendNANA
01:00 19.4 18.5 95 0.6       100.21     LegendNANA
02:00 19.6 18.6 94 0.1       100.13     LegendNANA
03:00 19.6 18.7 95 0.1       100.08     LegendNANA
04:00 19.8 18.8 94 0.0       100.03     LegendNANA
05:00 19.7 19.0 96 0.4       99.98     LegendNANA
06:00 18.8 18.0 95 3.0       99.97     LegendNANA
07:00 16.8 15.7 93 4.6       99.97     LegendNANA
08:00 16.6 15.6 94 0.9       99.93     LegendNANA
09:00 16.7 15.5 93 0.6       99.90     LegendNANA
10:00 16.4 15.3 94 0.8       99.86     LegendNANA
11:00 16.6 15.4 93 0.8       99.80     LegendNANA
12:00 17.1 16.1 94 0.7       99.72     LegendNANA
13:00 17.1 16.0 93 0.1       99.67     LegendNANA
14:00 16.5 15.5 94 2.0       99.59     LegendNANA
15:00 16.1 15.1 94 1.8       99.52     LegendNANA
16:00 15.6 14.6 94 0.8       99.47     LegendNANA
17:00 15.5 14.3 93 0.4       99.40     LegendNANA
18:00 15.5 14.1 92 0.0       99.35     LegendNANA
19:00 15.3 14.0 92 0.3       99.35     LegendNANA
20:00 14.2 13.0 92 4.3       99.39     LegendNANA
21:00 13.4 12.5 94 10.9       99.31     LegendNANA
22:00 13.3 12.4 95 6.9       99.23     LegendNANA
23:00 13.1 12.1 93 8.0       99.23     LegendNANA

Notes on Data Quality.

Legend

  • E = Estimated
  • M = Missing
  • NA = Not Available*
  • [empty] = Indicates an unobserved value
Date modified: